Find Optus D3

NORAD ID: 35756 Int'l Des: 2009-044 Owner: OPTS Country: AU operational
HEOCIRCULARGSO

リアルタイム位置

3D地球を読み込み中...

Optus D3について

説明を読み込み中...

次回通過

Passes for default location (London). Set your location on the main map for personalized predictions.

高度履歴

Loading altitude history...

軌道要素

1 35756U 09044B 26119.80479088 -.00000147 00000-0 00000+0 0 9998
2 35756 0.8548 270.1620 0003264 127.9169 265.5381 1.00271029 61088
Epoch: Apr 29, 2026 • Age: 6 hours

現在のステータス

高度 35772.4 km
速度 3.08 km/s
衛星直下点 0.73°N, 156.13°E
打ち上げ日 Aug 21, 2009
運用期間 16.6 years
タイプ other

技術仕様

分類 Payload
質量 2475.00 kg
乾燥質量 1182.00 kg
総質量 2475.00 kg
長さ 3.90 m
直径 2.30 m
スパン 22.40 m
形状 Box + 2 Pan
製造者 OSCD
バスタイプ OSC Star 2.4
フェーズステータス In Orbit
所有者/国 OPTS/AU

Most Searched